Date String (YYYY-MM-DD hh:mm:ss) UTC,Instrument flags,absolute air pressure of the measurement (hPa),sample flow rate (lpm),inlet stack bypass flow (lpm),air temperature of the measurement (°C),ambient temperature measured by the external sensor (°C),aerosol sample conditioner tube jacket temperature (°C),OPC LED temperature (°C),internal box temperature (°C),relative humidity of the measurement (%),span deviation,mass concentration of particles derived from Lorenz-Mie calculation of OPC scattering (μg/m³),mass concentration of particles derived from Lorenz-Mie calculation of OPC scattering (μg/m³),mass concentration of particles derived from Lorenz-Mie calculation of OPC scattering (μg/m³)
DateTimeUTC,F1_M11,P_M11,Q1_M11,Q2_M11,T1_M11,T2_M11,T3_M11,T4_M11,T5_M11,U1_M11,ZSPAN_M11,X2_M11,X0_M11,X1_M11
2023-08-05 15:00:00,SystemResetWarning,0835.3,5.00,000.00,029.5,028.3,000.0,037.9,031.2,32.1,0000.0,0004.93,0008.81,0004.43
2023-08-05 15:01:00,SystemResetWarning,0835.2,5.00,000.00,029.5,028.4,000.0,038.0,031.2,32.3,0000.0,0004.88,0009.13,0004.42
2023-08-05 15:02:00,SystemResetWarning,0835.2,4.98,000.00,029.5,027.8,000.0,037.9,031.2,32.2,0000.0,0004.93,0009.33,0004.41
2023-08-05 15:03:00,SystemResetWarning,0835.3,5.00,000.00,029.5,026.0,000.0,037.8,030.8,32.3,0000.0,0004.94,0009.36,0004.42
2023-08-05 15:04:00,SystemResetWarning,0835.3,5.01,000.00,029.4,025.1,000.0,037.7,030.6,32.2,0000.0,0004.92,0009.45,0004.42
2023-08-05 15:05:00,SystemResetWarning,0835.3,5.01,000.00,029.3,025.1,000.0,037.6,030.4,31.7,0000.0,0004.90,0010.01,0004.42
2023-08-05 15:06:00,SystemResetWarning,0835.3,5.01,000.00,029.2,025.5,000.0,037.7,030.4,31.9,0000.0,0004.92,0010.10,0004.41
2023-08-05 15:07:00,SystemResetWarning,0835.3,5.00,000.00,029.2,025.9,000.0,037.7,030.5,31.5,0000.0,0004.94,0010.10,0004.42
2023-08-05 15:08:00,SystemResetWarning,0835.3,5.00,000.00,029.1,026.3,000.0,037.7,030.6,31.7,0000.0,0004.94,0009.81,0004.45
2023-08-05 15:09:00,SystemResetWarning,0835.2,5.00,000.00,029.1,026.7,000.0,037.7,030.7,31.8,0000.0,0004.96,0009.44,0004.48
2023-08-05 15:10:00,SystemResetWarning,0835.2,5.00,000.00,029.2,027.0,000.0,037.8,030.8,31.7,0000.0,0004.98,0009.44,0004.50
2023-08-05 15:11:00,SystemResetWarning,0835.2,4.99,000.00,029.2,027.3,000.0,037.8,030.8,32.1,0000.0,0005.03,0009.52,0004.53
2023-08-05 15:12:00,SystemResetWarning,0835.3,5.00,000.00,029.2,027.5,000.0,037.8,030.9,31.6,0000.0,0005.08,0009.12,0004.56
2023-08-05 15:13:00,SystemResetWarning,0835.3,5.00,000.00,029.3,027.7,000.0,037.8,031.0,31.0,0000.0,0005.06,0008.99,0004.58
2023-08-05 15:14:00,SystemResetWarning,0835.3,5.01,000.00,029.3,027.9,000.0,037.8,031.0,31.1,0000.0,0005.04,0008.80,0004.59
2023-08-05 15:15:00,SystemResetWarning,0835.3,5.00,000.00,029.3,028.0,000.0,037.8,031.0,31.3,0000.0,0005.08,0008.73,0004.62
2023-08-05 15:16:00,SystemResetWarning,0835.2,5.00,000.00,029.4,028.1,000.0,037.8,031.1,31.4,0000.0,0005.13,0008.21,0004.65
2023-08-05 15:17:00,SystemResetWarning,0835.2,4.99,000.00,029.4,028.2,000.0,037.9,031.1,31.5,0000.0,0005.12,0008.10,0004.68
2023-08-05 15:18:00,SystemResetWarning,0835.2,4.99,000.00,029.4,028.3,000.0,037.9,031.2,31.3,0000.0,0005.13,0008.08,0004.71
2023-08-05 15:19:00,SystemResetWarning,0835.2,5.00,000.00,029.5,027.2,000.0,037.8,031.0,30.6,0000.0,0005.17,0008.19,0004.72
2023-08-05 15:20:00,SystemResetWarning,0835.1,5.00,000.00,029.4,025.6,000.0,037.7,030.7,31.4,0000.0,0005.19,0008.42,0004.72
2023-08-05 15:21:00,SystemResetWarning,0835.2,5.00,000.00,029.3,025.2,000.0,037.6,030.6,32.0,0000.0,0005.19,0008.84,0004.72
2023-08-05 15:22:00,SystemResetWarning,0835.2,5.01,000.00,029.2,025.5,000.0,037.6,030.5,32.0,0000.0,0005.21,0008.83,0004.71
2023-08-05 15:23:00,SystemResetWarning,0835.3,5.01,000.00,029.2,025.9,000.0,037.7,030.5,31.5,0000.0,0005.18,0008.84,0004.71
2023-08-05 15:24:00,SystemResetWarning,0835.3,5.00,000.00,029.1,026.3,000.0,037.7,030.6,31.4,0000.0,0005.16,0009.36,0004.71
2023-08-05 15:25:00,SystemResetWarning,0835.3,5.00,000.00,029.2,026.7,000.0,037.7,030.7,32.1,0000.0,0005.19,0009.72,0004.72
2023-08-05 15:26:00,SystemResetWarning,0835.2,5.00,000.00,029.2,027.0,000.0,037.7,030.8,32.2,0000.0,0005.19,0009.76,0004.72
2023-08-05 15:27:00,SystemResetWarning,0835.2,5.01,000.00,029.2,027.3,000.0,037.7,030.9,32.3,0000.0,0005.17,0009.65,0004.71
2023-08-05 15:28:00,SystemResetWarning,0835.2,5.01,000.00,029.2,027.5,000.0,037.8,030.9,33.4,0000.0,0005.15,0009.64,0004.70
2023-08-05 15:29:00,SystemResetWarning,0835.3,5.00,000.00,029.3,027.7,000.0,037.8,031.0,33.5,0000.0,0005.17,0010.02,0004.70
2023-08-05 15:30:00,SystemResetWarning,0835.3,5.00,000.00,029.3,027.9,000.0,037.8,031.0,33.2,0000.0,0005.13,0009.91,0004.68
2023-08-05 15:31:00,SystemResetWarning,0835.3,5.00,000.00,029.3,028.0,000.0,037.8,031.1,33.3,0000.0,0005.09,0009.69,0004.66
2023-08-05 15:32:00,SystemResetWarning,0835.3,4.99,000.00,029.4,028.2,000.0,037.8,031.1,32.9,0000.0,0005.13,0009.32,0004.66
2023-08-05 15:33:00,SystemResetWarning,0835.3,4.99,000.00,029.4,028.2,000.0,037.8,031.2,32.9,0000.0,0005.09,0009.32,0004.66
2023-08-05 15:34:00,SystemResetWarning,0835.3,4.99,000.00,029.4,026.9,000.0,037.7,031.0,32.6,0000.0,0005.09,0009.18,0004.66
2023-08-05 15:35:00,SystemResetWarning,0835.2,5.00,000.00,029.3,025.5,000.0,037.6,030.7,32.8,0000.0,0005.13,0008.69,0004.67
2023-08-05 15:36:00,SystemResetWarning,0835.2,5.00,000.00,029.3,025.2,000.0,037.5,030.6,32.7,0000.0,0005.11,0008.36,0004.67
2023-08-05 15:37:00,SystemResetWarning,0835.2,5.00,000.00,029.2,025.5,000.0,037.6,030.5,33.1,0000.0,0005.07,0008.60,0004.67
2023-08-05 15:38:00,SystemResetWarning,0835.1,5.01,000.00,029.1,025.9,000.0,037.6,030.5,33.0,0000.0,0005.08,0009.05,0004.68
2023-08-05 15:39:00,SystemResetWarning,0835.2,4.99,000.00,029.1,026.3,000.0,037.6,030.6,32.9,0000.0,0005.10,0009.08,0004.69
2023-08-05 15:40:00,SystemResetWarning,0835.1,5.00,000.00,029.1,026.7,000.0,037.7,030.7,32.5,0000.0,0005.09,0008.99,0004.70
2023-08-05 15:41:00,SystemResetWarning,0835.2,5.01,000.00,029.2,027.0,000.0,037.7,030.8,32.7,0000.0,0005.13,0009.80,0004.72
2023-08-05 15:42:00,SystemResetWarning,0835.2,5.00,000.00,029.2,027.3,000.0,037.7,030.9,32.6,0000.0,0005.20,0010.26,0004.75
2023-08-05 15:43:00,SystemResetWarning,0835.1,5.00,000.00,029.2,027.6,000.0,037.7,030.9,32.8,0000.0,0005.21,0010.64,0004.78
2023-08-05 15:44:00,SystemResetWarning,0835.1,5.00,000.00,029.3,027.8,000.0,037.7,031.0,32.9,0000.0,0005.23,0011.11,0004.81
2023-08-05 15:45:00,SystemResetWarning,0835.2,5.00,000.00,029.3,027.9,000.0,037.8,031.0,33.1,0000.0,0005.28,0011.32,0004.83
2023-08-05 15:46:00,SystemResetWarning,0835.2,4.99,000.00,029.3,028.1,000.0,037.8,031.1,32.9,0000.0,0005.27,0011.33,0004.85
2023-08-05 15:47:00,SystemResetWarning,0835.2,4.98,000.00,029.4,027.4,000.0,037.7,031.0,32.7,0000.0,0005.30,0011.38,0004.87
2023-08-05 15:48:00,SystemResetWarning,0835.2,5.01,000.00,029.3,025.8,000.0,037.6,030.7,32.8,0000.0,0005.36,0011.37,0004.90
2023-08-05 15:49:00,SystemResetWarning,0835.2,5.01,000.00,029.2,025.1,000.0,037.5,030.5,33.4,0000.0,0005.39,0010.77,0004.93
2023-08-05 15:50:00,SystemResetWarning,0835.1,5.00,000.00,029.1,025.2,000.0,037.5,030.4,33.7,0000.0,0005.43,0010.98,0004.97
2023-08-05 15:51:00,SystemResetWarning,0835.1,5.01,000.00,029.1,025.6,000.0,037.5,030.4,33.9,0000.0,0005.46,0011.27,0005.02
2023-08-05 15:52:00,SystemResetWarning,0835.1,5.00,000.00,029.0,026.0,000.0,037.6,030.5,34.5,0000.0,0005.50,0010.55,0005.07
2023-08-05 15:53:00,SystemResetWarning,0835.1,5.00,000.00,029.0,026.5,000.0,037.6,030.6,34.4,0000.0,0005.52,0010.14,0005.11
2023-08-05 15:54:00,SystemResetWarning,0835.2,5.00,000.00,029.1,026.8,000.0,037.6,030.7,34.2,0000.0,0005.53,0009.96,0005.13
2023-08-05 15:55:00,SystemResetWarning,0835.2,5.00,000.00,029.1,027.1,000.0,037.6,030.8,34.1,0000.0,0005.56,0009.37,0005.15
2023-08-05 15:56:00,SystemResetWarning,0835.3,5.00,000.00,029.1,027.4,000.0,037.6,030.8,33.6,0000.9,0005.60,0009.26,0005.17
2023-08-05 15:57:00,SystemResetWarning,0835.3,5.00,000.00,029.2,027.6,000.0,037.6,030.9,34.1,0000.8,0005.64,0009.28,0005.19
2023-08-05 15:58:00,SystemResetWarning,0835.3,5.00,000.00,029.2,027.8,000.0,037.7,031.0,33.5,-000.2,0005.71,0009.40,0005.21
2023-08-05 15:59:00,SystemResetWarning,0835.3,5.00,000.00,029.2,028.0,000.0,037.7,031.0,33.2,-000.9,0005.74,0010.09,0005.22
